RH
43 42 42 41 39 39 40 40 42 43 42 42 44 45 48 49 49 48 47 47 47 47 46 44 44 42 40 38 36 34 35 36 37 39 41 40 47 76 99 100 98 100
43 42 42 43 40 38 38 39 41 42 41 42 44 46 48 49 50 49 48 48 48 48 47 46 45 43 41 40 38 37 36 36 36 39 41 42 60 90 100 95 96 96
43 44 44 42 40 38 37 39 41 42 42 42 43 46 48 50 51 50 49 49 49 49 48 47 46 44 43 41 40 39 38 38 38 38 39 41 57 82 93 92 92 89
43 44 44 42 41 39 38 40 41 41 42 42 43 45 49 51 52 51 51 49 50 50 49 49 47 44 44 42 42 41 39 39 39 38 40 38 41 60 78 85 88 91
44 45 45 44 43 41 41 43 41 41 41 41 42 45 49 51 52 52 51 50 50 51 51 50 48 46 45 44 43 42 41 40 39 39 40 37 34 45 63 77 89 97
47 47 47 46 45 43 44 44 42 42 42 42 43 45 49 51 52 53 52 51 51 51 52 51 49 48 46 45 44 43 42 40 41 41 39 35 30 34 54 79 96 100
55 52 50 49 47 46 46 45 45 44 42 42 44 47 50 51 53 53 52 52 52 52 54 52 51 50 48 48 46 44 43 41 41 42 38 34 27 30 51 79 96 100
62 60 55 55 55 51 49 46 46 46 44 45 46 48 50 52 53 54 53 53 53 54 55 53 52 51 50 50 47 45 44 41 42 43 40 33 27 36 61 80 92 98
71 71 68 68 66 61 57 53 51 52 51 52 52 52 54 54 54 55 54 53 54 55 56 55 54 53 52 51 49 47 44 42 43 42 41 33 25 43 73 86 91 97
79 79 77 75 73 71 70 67 65 64 62 62 60 59 59 58 56 56 54 54 55 56 57 57 56 56 54 51 49 47 44 44 43 42 42 32 24 48 80 89 92 98
81 81 81 80 79 79 79 77 76 74 72 71 69 67 65 62 61 59 56 55 57 58 60 62 61 59 55 52 50 48 46 45 43 44 41 29 33 63 86 87 92 99
76 75 76 77 77 76 76 77 76 75 75 74 73 73 72 70 68 64 59 57 59 63 66 66 65 61 57 55 52 49 48 47 45 44 35 31 52 80 86 85 94 101
69 67 66 65 64 62 62 64 66 68 70 73 76 80 82 79 73 65 61 63 67 71 72 70 67 63 58 55 53 52 50 48 45 42 36 43 69 86 86 91 99 100
65 65 66 67 66 65 65 66 69 73 78 82 86 87 84 77 69 66 69 74 76 75 74 71 67 62 58 57 56 53 50 51 58 62 61 66 79 88 92 99 100 99
67 77 82 85 86 86 86 85 85 86 87 86 84 80 75 72 73 77 79 79 78 76 73 70 65 62 61 58 55 55 60 73 86 90 85 82 88 95 99 100 99 100
71 87 93 92 93 95 94 91 87 83 80 78 76 76 77 79 81 81 80 78 77 75 71 68 65 64 62 60 67 78 87 96 101 96 88 88 95 100 100 100 100 100
71 84 88 86 89 91 88 84 81 79 79 79 80 82 82 81 80 78 78 78 76 74 71 69 69 66 64 74 91 99 100 101 98 93 90 94 100 101 100 101 100 96
73 80 83 83 86 89 87 85 84 84 85 83 81 81 79 78 79 78 78 78 76 76 74 71 71 68 67 85 103 101 98 100 98 96 97 100 101 100 100 101 98 93
78 82 85 85 87 89 89 88 87 84 82 79 77 77 77 78 79 79 80 81 79 78 74 72 73 66 65 85 103 101 99 101 99 99 101 100 100 100 100 100 97 92
81 86 88 88 89 91 93 92 90 86 82 79 78 79 80 82 84 85 86 84 81 78 74 73 71 65 70 90 102 100 99 99 99 101 101 101 100 98 97 99 96 91
89 93 93 90 89 92 96 95 92 90 87 86 86 86 88 90 90 90 88 84 81 77 74 73 69 70 86 100 101 99 100 99 100 101 100 100 99 96 96 97 93 90
99 99 97 95 91 89 92 93 94 95 94 94 93 93 95 94 91 90 86 82 79 77 78 77 71 75 94 103 99 99 100 99 100 101 100 99 97 96 97 94 91 91
102 100 100 99 94 90 89 88 92 96 99 99 99 99 97 93 90 88 83 80 81 81 83 82 75 78 94 103 100 99 99 99 101 101 101 101 99 97 96 94 91 91
95 94 100 102 97 92 86 81 83 92 100 103 102 101 96 90 87 84 80 81 84 84 85 84 80 81 92 102 101 99 100 101 100 100 102 101 97 94 92 91 89 88
86 86 98 103 99 93 85 79 82 93 102 103 101 97 90 84 84 84 82 80 82 86 88 86 85 83 88 98 102 100 100 101 100 101 101 97 94 92 91 89 87 86
82 84 97 99 95 93 88 83 89 98 102 100 97 91 86 85 86 88 88 84 86 94 94 89 90 90 88 94 102 101 100 101 102 102 99 94 93 89 85 81 78 77
Wind_Speed
21 20 19 19 18 17 16 15 15 14 14 15 14 15 15 15 15 15 16 16 17 17 18 18 19 20 22 23 24 25 25 25 26 25 24 24 23 19 17 18 18 19
24 23 22 21 20 19 18 17 16 16 16 16 16 16 15 15 15 15 15 15 16 16 17 18 18 19 20 22 23 24 24 25 26 25 25 24 21 17 16 17 18 19
27 26 25 24 23 21 20 19 18 18 18 18 18 18 17 16 15 14 15 15 15 16 16 17 18 18 19 20 22 23 24 24 25 25 24 23 20 18 17 18 19 20
31 29 28 26 25 24 22 21 21 21 20 20 19 19 19 17 16 15 15 15 15 15 15 16 17 18 19 20 21 22 23 24 24 24 23 23 21 19 19 20 21 21
33 32 30 28 27 26 25 24 24 23 22 22 21 21 20 19 18 16 15 15 15 15 15 15 16 17 18 19 20 21 23 24 25 24 23 23 22 20 20 20 20 19
36 34 32 30 29 28 28 28 26 25 25 24 23 22 22 21 20 18 16 15 14 14 15 15 15 16 18 19 20 21 22 24 25 24 23 23 22 21 20 18 17 17
37 36 33 31 31 31 31 30 29 28 27 26 26 25 23 22 21 19 17 16 15 14 14 14 15 15 16 18 20 21 22 23 24 24 24 23 21 21 19 16 16 17
34 33 31 31 33 34 34 33 32 31 30 29 28 27 25 23 22 20 18 17 16 14 14 14 14 15 16 17 19 21 23 23 24 24 24 23 21 20 19 16 16 18
28 28 28 30 32 33 33 33 33 32 30 29 28 27 26 24 22 20 18 17 16 15 14 13 13 14 15 17 18 20 22 23 24 24 24 23 21 19 19 17 18 19
25 25 25 26 26 27 28 28 28 27 26 26 25 25 25 24 22 20 19 18 17 15 14 13 13 14 15 16 18 20 21 22 23 23 24 23 20 18 18 18 19 19
21 21 20 20 20 20 20 20 20 21 21 21 21 21 22 21 21 20 19 18 16 14 13 13 14 15 15 17 17 19 21 22 23 23 23 22 19 16 17 19 20 17
21 21 21 21 20 20 20 20 20 20 20 20 19 19 19 19 19 19 18 16 14 13 13 14 15 16 17 18 18 19 20 22 23 23 22 20 18 16 17 19 18 14
24 24 24 23 23 23 24 23 23 23 22 20 19 20 20 19 18 17 15 13 12 12 13 14 16 18 19 19 20 20 21 22 21 20 19 18 17 17 17 17 14 13
25 25 24 24 24 24 24 23 22 21 20 19 19 18 16 14 13 12 11 10 11 12 14 16 18 19 20 21 21 21 21 20 18 18 18 18 18 18 16 13 12 11
25 24 23 23 23 23 22 22 20 19 18 16 13 10 7 7 8 9 10 12 13 15 16 17 19 20 21 21 22 22 20 19 18 18 19 20 20 18 14 12 12 10
24 22 22 22 22 21 20 19 16 13 11 7 5 4 5 7 10 12 13 15 16 17 18 19 20 20 21 21 20 19 19 19 20 20 20 20 20 16 13 11 9 8
22 21 21 22 21 20 16 13 10 8 7 7 8 10 12 14 15 16 16 17 17 18 19 20 20 20 20 19 17 17 18 19 20 20 21 21 18 14 11 10 7 4
20 20 20 19 19 17 13 10 9 10 12 15 16 17 18 18 18 18 18 18 18 19 20 20 20 20 19 17 17 17 18 18 20 21 21 18 15 11 9 8 7 4
20 20 19 18 17 15 14 14 16 18 19 21 21 20 20 19 18 18 18 17 18 19 20 20 19 20 19 17 17 17 17 18 20 19 16 13 11 9 8 7 6 5
21 20 20 19 18 17 17 18 19 21 21 21 21 20 19 18 18 18 17 17 17 18 19 20 20 19 18 17 17 16 16 17 17 13 11 9 8 7 6 7 7 6
21 20 20 21 20 19 19 20 21 22 22 21 20 19 18 17 17 17 18 18 18 18 19 21 20 18 16 16 16 15 15 15 12 9 8 7 7 6 6 6 6 6
20 21 22 22 22 21 21 22 22 22 21 20 19 17 17 17 17 18 18 18 18 18 19 20 19 16 14 14 14 14 15 13 10 9 8 7 7 7 6 6 6 6
20 22 23 23 23 22 21 21 22 22 20 19 18 17 17 18 18 18 18 18 18 17 17 19 18 14 12 13 13 14 14 12 9 9 9 8 7 6 5 5 6 4
22 23 23 22 21 20 20 20 21 21 19 18 18 18 18 18 18 18 17 17 17 17 16 17 16 13 11 13 13 14 13 9 8 9 9 8 6 6 5 5 4 2
24 24 22 21 20 19 21 21 21 20 19 18 17 17 18 17 17 17 17 17 15 14 13 13 14 12 11 12 14 14 12 9 9 10 9 8 6 5 4 2 2 1
23 22 20 20 21 22 23 22 21 19 17 16 16 17 17 17 16 15 16 15 12 10 10 9 10 9 9 12 14 11 10 9 9 9 8 6 4 2 1 1 2 3
Wind_Direction
279 279 282 286 290 294 298 302 305 306 308 309 309 312 314 316 320 325 330 337 343 348 352 356 358 359 360 2 3 3 1 357 355 351 344 341 339 336 329 323 323 322
274 274 276 278 282 288 292 296 297 296 300 302 301 302 303 304 309 313 319 326 332 339 343 346 351 353 355 357 358 360 359 356 354 350 344 341 339 332 323 321 321 317
270 270 270 272 277 283 288 290 290 290 292 296 296 297 296 295 298 302 308 315 322 329 334 338 344 347 351 353 354 356 355 355 353 348 342 339 334 326 320 318 315 313
269 268 267 269 273 278 282 283 283 285 286 289 293 293 290 288 289 293 298 304 311 319 325 331 336 341 345 347 350 351 351 351 350 346 340 335 330 324 318 317 315 314
270 268 267 268 270 274 276 275 278 282 283 285 290 290 286 284 284 286 289 295 302 309 317 323 329 335 340 342 346 348 347 347 346 344 338 332 328 323 318 318 316 313
270 268 268 268 270 272 272 273 276 278 280 283 285 285 284 281 280 281 283 287 293 300 308 316 322 329 334 338 341 343 343 343 342 340 335 331 325 319 319 320 312 310
274 270 269 271 273 273 272 273 274 275 278 281 281 282 282 279 277 278 279 281 285 293 300 308 316 323 330 334 336 339 339 339 338 336 331 328 322 315 317 318 309 308
283 276 276 279 279 277 274 274 274 275 276 277 277 279 279 277 275 273 274 276 281 287 294 302 311 318 326 331 333 335 335 334 334 332 328 324 318 312 313 315 311 308
295 291 291 291 288 284 282 280 278 276 275 276 278 280 279 275 272 269 269 272 276 282 290 299 308 315 322 327 330 331 329 330 330 327 324 319 312 308 309 311 312 308
313 311 309 305 301 297 294 291 289 287 286 286 285 283 279 274 268 263 264 268 272 280 288 298 307 315 320 324 326 326 324 325 325 323 319 313 306 304 305 309 312 306
332 331 330 327 323 319 314 311 309 306 303 300 296 290 283 274 265 260 261 264 270 279 290 301 309 313 317 320 321 321 320 319 319 318 313 306 302 302 301 306 310 300
343 341 339 336 332 329 325 322 319 317 314 311 306 298 288 276 264 257 257 262 271 283 295 304 309 312 314 317 317 316 316 315 313 311 306 300 301 302 301 305 303 288
341 338 335 332 328 325 322 318 314 313 311 308 302 295 289 276 261 252 254 265 279 291 302 308 310 312 313 314 314 314 312 311 309 307 302 298 299 303 306 305 290 272
335 332 329 328 326 324 322 319 315 311 306 302 297 292 285 268 253 252 264 282 295 303 309 310 309 310 311 310 310 310 308 307 307 306 302 299 302 305 302 293 275 264
336 333 331 330 328 326 324 321 316 311 306 303 299 289 271 257 264 282 297 304 308 310 309 307 307 307 307 307 307 307 306 306 306 304 301 299 301 297 281 262 257 260
339 338 338 339 338 336 332 329 325 322 322 322 319 309 298 300 305 309 311 311 309 307 305 304 305 305 304 305 304 301 300 300 300 298 294 293 291 280 263 252 247 246
336 336 338 341 342 343 343 346 351 355 354 346 333 324 319 316 315 313 311 308 306 305 304 303 303 302 303 303 297 293 292 292 291 289 286 283 276 263 258 253 236 223
331 329 331 335 339 342 345 349 347 340 334 329 325 322 318 315 312 309 307 306 305 304 303 302 301 301 302 300 293 291 290 286 285 285 281 271 257 247 246 239 223 226
327 324 325 327 329 330 327 324 322 321 321 321 320 317 314 310 307 306 305 305 304 303 301 300 300 301 302 298 292 289 287 285 285 282 269 249 233 232 237 230 225 240
320 318 319 320 320 317 312 311 312 312 313 313 311 309 307 305 305 305 305 305 304 302 300 298 299 300 300 295 291 288 286 287 285 271 246 229 226 231 234 231 231 242
314 314 315 316 316 312 306 304 306 307 309 308 306 304 303 304 306 305 305 305 303 301 298 296 298 300 298 294 291 287 288 290 281 253 232 229 232 233 235 238 237 239
312 315 316 316 315 310 304 303 305 307 308 307 304 302 302 304 305 304 304 303 301 300 296 295 297 297 296 295 291 287 291 290 268 239 230 230 229 228 231 234 231 232
316 319 316 314 312 309 307 307 309 309 308 306 304 304 304 305 304 303 302 301 300 299 296 296 296 291 290 294 289 286 291 284 252 230 222 216 217 216 216 219 219 227
321 320 314 308 308 310 313 315 314 310 306 304 305 305 306 307 305 303 301 300 299 299 298 296 293 287 286 289 287 287 289 275 239 223 211 202 201 195 197 209 210 213
322 319 310 305 308 314 317 317 314 306 301 302 305 307 307 307 306 304 302 303 302 301 299 293 291 289 285 287 291 290 281 256 223 208 194 183 181 179 186 215 239 284
320 318 310 308 313 315 315 315 310 301 298 303 307 309 308 307 308 307 306 307 307 305 299 291 292 291 287 297 300 284 252 225 204 189 174 162 155 157 195 309 313 317